Regional Weather Roundup
Issued by NWS Glasgow, MT

Home | Current Version | Previous Version | Text Only | Print | Product List | Glossary On
Versions: 1 2 3 4 5 6 7 8 9 10 11 12 13 14 15 16 17 18 19 20 21 22 23 24 25 26 27 28 29 30 31 32 33 34 35 36 37 38 39 40 41 42 43 44 45 46 47 48 49 50
000
ASUS45 KGGW 051615
RWRGGW
HOURLY WEATHER ROUNDUP FOR NORTHEAST MONTANA
NATIONAL WEATHER SERVICE GLASGOW MONTANA
1000 AM MDT TUE MAY 05 2015

NOTE: "FAIR" INDICATES FEW OR NO CLOUDS BELOW 12,000 FEET WITH NO
SIGNIFICANT WEATHER AND/OR OBSTRUCTIONS TO VISISBILITY.

NORTHEAST MONTANA


CITY           SKY/WX    TMP DP  RH WIND       PRES   REMARKS
GLASGOW        SUNNY     62  39  42 SE16      29.80F
WOLF POINT     SUNNY     65  39  38 SE8       29.83F
JORDAN           N/A     64  41  42 SE10      29.79F
WINNETT          N/A     69  44  40 S3G12       N/A
SIDNEY         SUNNY     66  37  34 S16       29.87F
GLENDIVE       SUNNY     64  41  42 S17G23    29.87F
MALTA            N/A     66  46  48 SE5         N/A
OPHEIM           N/A     59  39  47 SE8       29.63

FORT PECK REPORTS


CITY           SKY/WX    TMP DP  RH WIND       PRES   REMARKS
FORT PECK        N/A     59  41  51 S9          N/A
THE PINES        N/A     61  37  41 SE6         N/A

SOUTHEAST MONTANA


CITY           SKY/WX    TMP DP  RH WIND       PRES   REMARKS
BILLINGS       PTSUNNY   62  43  49 SW7       29.81F
MILES CITY     SUNNY     66  42  41 S16G23    29.82F
BAKER          SUNNY     64  40  41 SE20G26   29.90F
LIVINGSTON     MOSUNNY   61  38  42 VRB3      29.82F

CENTRAL MONTANA


CITY           SKY/WX    TMP DP  RH WIND       PRES   REMARKS
HAVRE          MOSUNNY   64  43  46 S3        29.74F
LEWISTOWN      PTSUNNY   67  40  37 CALM      29.78S
GREAT FALLS    SUNNY     62  36  37 NE3       29.78F
CUT BANK       PTSUNNY   60  36  40 W26       29.77S
HELENA         PTSUNNY   59  33  37 VRB3      29.82F
BUTTE          PTSUNNY   52  30  43 E3        29.88F
BOZEMAN        PTSUNNY   59  41  51 NW6       29.83S

WESTERN MONTANA


CITY           SKY/WX    TMP DP  RH WIND       PRES   REMARKS
MISSOULA       MOSUNNY   59  42  53 NW12      29.85F
KALISPELL      NOT AVBL

NORTH DAKOTA


CITY           SKY/WX    TMP DP  RH WIND       PRES   REMARKS
WILLISTON      SUNNY     68  33  27 S15G26    29.90F
DICKINSON      SUNNY     64  36  35 S25G35    29.92F
MINOT          CLOUDY    68  32  26 S18       29.98F
BISMARCK       SUNNY     68  38  33 S20G30    30.04F

SOUTHERN SASKATCHEWAN


CITY           SKY/WX    TMP DP  RH WIND       PRES   REMARKS
REGINA         PTSUNNY   61  37  41 SE23G30   29.84F
ESTEVAN        MOSUNNY   66  32  28 S22       29.90F
SWIFT CURRENT  SUNNY     66  41  39 S14       29.73S



USA.gov is the U.S. government's official web portal to all federal, state and local government web resources and services.